EW6926 Weather Reports


Display with metric or nautical units.
time (UTC)temp
F
wind
direction
speed
MPH
gust
MPH
rain 1hr
in
rain 24hr
in
rain mn
in
humidity
%
barometer
mb
20260509173040 57 232 0.0 10.0 0.00 0.25 0.24 88 1011.2
20260509172005 57 255 0.0 9.0 0.00 0.00 0.24 88 1010.9
20260509171553 57 266 0.0 5.0 0.00 0.25 0.24 89 1011.0
20260509171005 57 215 0.0 8.0 0.00 0.00 0.24 90 1010.8
20260509170104 56 242 1.0 9.0 0.01 0.25 0.24 90 1011.0
20260509170010 56 226 3.0 9.0 0.00 0.00 0.24 90 1010.9
20260509165005 56 252 3.0 9.0 0.00 0.00 0.24 92 1010.7
20260509164514 56 251 1.0 6.0 0.01 0.25 0.24 93 1010.9
20260509164004 56 265 3.0 5.0 0.00 0.00 0.24 94 1010.8
20260509163020 54 244 0.0 7.0 0.01 0.25 0.24 95 1010.8
20260509163005 55 269 1.0 7.0 0.00 0.00 0.24 95 1010.7
20260509161535 53 262 0.0 8.0 0.02 0.25 0.24 95 1011.0
20260509161005 54 308 0.0 6.0 0.00 0.00 0.23 96 1010.9
20260509160045 53 270 0.0 3.0 0.02 0.24 0.23 96 1010.9
20260509160005 53 282 1.0 3.0 0.00 0.00 0.23 96 1010.7
20260509155005 53 214 0.0 1.0 0.00 0.00 0.23 96 1010.4
20260509154559 52 214 0.0 5.0 0.03 0.24 0.23 96 1010.3
20260509154005 52 214 2.0 3.0 0.00 0.00 0.23 96 1010.1
20260509153013 52 217 0.0 2.0 0.04 0.24 0.23 96 1010.5
20260509153005 52 217 0.0 2.0 0.00 0.00 0.23 96 1010.4
20260509151522 52 234 0.0 5.0 0.04 0.23 0.22 96 1010.8
20260509151005 52 169 0.0 5.0 0.00 0.00 0.22 96 1010.8
20260509150038 52 233 0.0 2.0 0.04 0.22 0.21 96 1010.9
20260509144546 52 242 0.0 5.0 0.05 0.21 0.20 96 1011.1
20260509143101 51 268 0.0 5.0 0.05 0.20 0.19 96 1011.1
20260509143005 52 226 0.0 5.0 0.00 0.00 0.19 96 1011.0
20260509142005 52 289 0.0 2.0 0.00 0.00 0.18 96 1011.0
20260509141507 51 230 0.0 3.0 0.05 0.19 0.18 96 1011.1
20260509141004 52 217 0.0 3.0 0.00 0.00 0.18 96 1011.1
20260509140014 51 214 0.0 2.0 0.05 0.18 0.17 96 1011.2
20260509140006 52 214 1.0 2.0 0.00 0.00 0.17 96 1011.1
20260509135004 52 218 1.0 2.0 0.00 0.00 0.16 96 1011.0
20260509134527 51 211 0.0 2.0 0.04 0.16 0.15 96 1011.2
20260509134004 52 217 1.0 2.0 0.00 0.00 0.15 96 1011.2
20260509133041 51 226 0.0 2.0 0.04 0.15 0.14 96 1011.3
20260509132005 51 223 0.0 2.0 0.00 0.00 0.13 96 1011.3
20260509131559 51 169 0.0 1.0 0.03 0.14 0.13 96 1011.4
20260509131005 51 209 0.0 2.0 0.00 0.00 0.13 96 1011.3
20260509130007 51 122 0.0 0.0 0.01 0.12 0.11 96 1011.4
20260509130005 51 122 0.0 0.0 0.00 0.00 0.11 96 1011.3
20260509125005 51 193 0.0 4.0 0.00 0.00 0.11 96 1011.4
20260509124523 51 212 0.0 2.0 0.01 0.11 0.10 96 1011.5
20260509124005 51 219 0.0 1.0 0.00 0.00 0.10 96 1011.5
20260509123034 50 219 0.0 1.0 0.02 0.11 0.10 96 1011.6
20260509123004 51 219 0.0 1.0 0.00 0.00 0.10 96 1011.4
20260509122009 51 219 0.0 1.0 0.00 0.00 0.10 96 1011.5
20260509121545 50 219 0.0 1.0 0.04 0.11 0.10 96 1011.6
20260509121005 51 219 0.0 1.0 0.00 0.00 0.10 96 1011.5
20260509120005 50 219 0.0 2.0 0.00 0.00 0.10 96 1011.5
20260509115005 50 218 0.0 1.0 0.00 0.00 0.09 96 1011.5
20260509114510 50 218 0.0 1.0 0.04 0.10 0.09 96 1011.7
20260509114005 50 217 0.0 1.0 0.00 0.00 0.09 96 1011.4
20260509113024 50 217 0.0 0.0 0.04 0.09 0.08 95 1011.4
20260509112005 50 217 0.0 1.0 0.00 0.00 0.06 95 1011.4
20260509111535 50 217 0.0 1.0 0.03 0.07 0.06 95 1011.5
20260509110050 50 217 0.0 0.0 0.02 0.06 0.05 95 1011.3
20260509110005 50 215 0.0 0.0 0.00 0.00 0.05 95 1011.3
20260509105004 51 214 1.0 1.0 0.00 0.00 0.05 94 1011.3
20260509104603 50 200 0.0 2.0 0.03 0.06 0.05 94 1011.3
20260509104004 51 214 1.0 2.0 0.00 0.00 0.04 94 1011.3
20260509103016 50 205 0.0 2.0 0.02 0.05 0.04 94 1011.4
20260509103004 51 205 1.0 2.0 0.00 0.00 0.04 94 1011.2
20260509102004 51 213 0.0 2.0 0.00 0.00 0.03 93 1011.4
20260509101532 50 224 0.0 1.0 0.02 0.04 0.03 93 1011.4
20260509100039 50 226 0.0 1.0 0.02 0.04 0.03 93 1011.4
20260509100006 51 215 0.0 2.0 0.00 0.00 0.03 93 1011.3
20260509095004 50 234 1.0 2.0 0.00 0.00 0.02 93 1011.4
20260509094553 50 219 0.0 0.0 0.01 0.03 0.02 94 1011.5
20260509094004 50 219 0.0 1.0 0.00 0.00 0.02 94 1011.4
20260509093103 50 221 0.0 2.0 0.02 0.03 0.02 94 1011.7
20260509093009 50 217 1.0 2.0 0.00 0.00 0.02 94 1011.6
20260509092004 50 217 1.0 2.0 0.00 0.00 0.02 94 1011.8
20260509091512 49 221 0.0 1.0 0.01 0.02 0.01 94 1011.9
20260509091004 50 231 0.0 1.0 0.00 0.00 0.01 94 1011.8
20260509090023 49 137 0.0 1.0 0.01 0.02 0.01 95 1011.9
20260509090004 50 137 0.0 1.0 0.00 0.00 0.01 95 1011.7
20260509085005 50 137 0.0 0.0 0.00 0.00 0.01 95 1011.7
20260509084537 49 137 0.0 0.0 0.01 0.02 0.01 95 1011.9
20260509084004 50 137 0.0 0.0 0.00 0.00 0.00 95 1011.8
20260509083048 49 137 0.0 0.0 0.00 0.01 0.00 95 1011.8
20260509083005 50 137 0.0 0.0 0.00 0.00 0.00 95 1011.7
20260509082005 50 125 2.0 3.0 0.00 0.00 0.00 95 1011.7
20260509081604 49 263 0.0 2.0 0.00 0.01 0.00 95 1011.7
20260509081005 50 263 0.0 2.0 0.00 0.00 0.00 95 1011.6
20260509080011 49 263 0.0 1.0 0.00 0.01 0.00 95 1011.4
20260509080005 50 263 0.0 1.0 0.00 0.00 0.00 95 1011.3
20260509074526 49 53 0.0 0.0 0.00 0.01 0.00 94 1011.0
20260509074005 50 53 0.0 0.0 0.00 0.00 0.00 94 1010.7
20260509073039 49 53 0.0 0.0 0.00 0.01 0.00 94 1010.8
20260509073005 50 53 0.0 0.0 0.00 0.00 0.00 94 1010.7
20260509072005 50 53 0.0 0.0 0.00 0.00 0.00 94 1010.8
20260509071556 49 53 0.0 0.0 0.00 0.01 0.00 94 1010.9
20260509071004 50 53 0.0 0.0 0.00 0.00 0.00 94 1010.8
20260509070106 49 53 0.0 0.0 0.00 0.01 0.00 94 1011.0
20260509070016 50 53 0.0 0.0 0.00 0.00 0.00 94 1010.9
20260509065005 50 53 0.0 1.0 0.00 0.00 0.00 94 1011.0
20260509064512 49 53 0.0 1.0 0.00 0.01 0.00 94 1011.3
20260509064005 50 53 0.0 0.0 0.00 0.00 0.00 94 1011.2
20260509063025 49 53 0.0 0.0 0.00 0.01 0.00 94 1011.4
20260509063005 50 53 0.0 0.0 0.00 0.00 0.00 94 1011.3
20260509062005 50 53 0.0 0.0 0.00 0.00 0.00 94 1011.5
20260509061538 50 53 0.0 0.0 0.00 0.01 0.00 93 1011.7
20260509061005 50 53 0.0 1.0 0.00 0.00 0.00 93 1011.8
20260509060104 50 137 0.0 1.0 0.00 0.01 0.00 92 1012.1
20260509060006 50 137 1.0 1.0 0.00 0.00 0.00 92 1012.0
20260509055005 50 137 0.0 1.0 0.00 0.00 0.00 92 1012.0
20260509054604 50 138 0.0 0.0 0.00 0.01 0.00 92 1012.1
20260509054005 50 138 0.0 0.0 0.00 0.00 0.00 92 1012.0
20260509053014 50 138 0.0 2.0 0.00 0.01 0.00 92 1012.2
20260509053005 50 138 0.0 2.0 0.00 0.00 0.00 92 1012.1
20260509052005 50 136 1.0 2.0 0.00 0.00 0.00 93 1012.2
20260509051524 50 28 1.0 1.0 0.00 0.01 0.00 94 1012.4
20260509051004 50 18 0.0 0.0 0.00 0.00 0.00 94 1012.4
20260509050055 50 18 0.0 0.0 0.00 0.01 0.00 94 1012.3
20260509050004 50 18 0.0 0.0 0.00 0.00 0.00 94 1012.2
20260509045004 50 18 0.0 0.0 0.00 0.00 0.00 93 1012.2
20260509044559 50 18 0.0 0.0 0.00 0.01 0.00 93 1012.3
20260509043101 50 18 0.0 0.0 0.00 0.01 0.00 93 1012.7
20260509043005 50 18 0.0 0.0 0.00 0.00 0.00 93 1012.6
20260509042004 50 18 0.0 0.0 0.00 0.00 0.00 92 1012.7
20260509041511 50 18 0.0 0.0 0.00 0.01 0.00 92 1012.8
20260509041004 51 18 0.0 0.0 0.00 0.00 0.00 92 1012.7
20260509040024 50 18 0.0 1.0 0.00 0.01 0.00 92 1012.9
20260509040005 51 18 0.0 1.0 0.00 0.00 0.01 92 1012.9
20260509035004 51 18 0.0 1.0 0.00 0.00 0.01 92 1013.2
20260509034542 50 18 0.0 1.0 0.01 0.01 0.01 92 1013.4
20260509034004 51 18 0.0 0.0 0.00 0.00 0.01 91 1013.3
20260509033051 51 18 0.0 0.0 0.01 0.01 0.01 91 1013.5
20260509032004 51 18 0.0 0.0 0.00 0.00 0.01 90 1013.6
20260509031501 51 18 0.0 1.0 0.01 0.01 0.01 90 1013.8
20260509031006 51 18 0.0 1.0 0.00 0.00 0.01 90 1013.7
20260509030026 51 18 0.0 0.0 0.01 0.01 0.01 89 1014.0
20260509030004 51 18 0.0 0.0 0.00 0.00 0.01 89 1013.9
20260509024529 51 18 0.0 2.0 0.00 0.00 0.00 87 1014.0
20260509024004 52 18 0.0 2.0 0.00 0.00 0.00 87 1013.9
20260509023053 52 20 0.0 1.0 0.00 0.00 0.00 86 1014.0
20260509023006 52 20 0.0 1.0 0.00 0.00 0.00 86 1013.9
20260509022006 53 20 0.0 1.0 0.00 0.00 0.00 84 1013.9
20260509021556 52 20 0.0 1.0 0.00 0.00 0.00 83 1013.9
20260509020010 53 20 0.0 0.0 0.00 0.00 0.00 80 1013.6
20260509020007 53 20 0.0 0.0 0.00 0.00 0.00 80 1013.5
20260509014518 53 20 0.0 2.0 0.00 0.00 0.00 78 1013.3
20260509014010 54 20 0.0 2.0 0.00 0.00 0.00 78 1013.3
20260509013036 54 34 0.0 3.0 0.00 0.00 0.00 75 1013.1
20260509012004 54 12 1.0 2.0 0.00 0.00 0.00 73 1012.8
20260509011546 54 129 0.0 2.0 0.00 0.00 0.00 72 1012.8
20260509011004 55 129 0.0 2.0 0.00 0.00 0.00 72 1012.5
20260509010004 55 120 0.0 3.0 0.00 0.00 0.00 72 1012.4
20260509005004 55 120 0.0 4.0 0.00 0.00 0.00 72 1012.4
20260509004520 54 124 1.0 4.0 0.00 0.00 0.00 72 1012.5
20260509004004 55 145 1.0 3.0 0.00 0.00 0.00 72 1012.4
20260509003021 55 139 1.0 3.0 0.00 0.00 0.00 72 1012.5
20260509003004 55 140 2.0 3.0 0.00 0.00 0.00 72 1012.4
20260509002005 55 129 0.0 2.0 0.00 0.00 0.00 70 1012.5
20260509001534 55 151 0.0 2.0 0.00 0.00 0.00 70 1012.6
20260509001009 55 131 0.0 1.0 0.00 0.00 0.00 71 1012.5
20260509000057 55 131 0.0 0.0 0.00 0.00 0.00 70 1012.6
20260509000004 56 131 0.0 0.0 0.00 0.00 0.00 70 1012.4
20260508234601 56 141 0.0 1.0 0.00 0.00 0.00 68 1012.6
20260508234004 56 86 0.0 1.0 0.00 0.00 0.00 67 1012.6
20260508233010 56 311 0.0 0.0 0.00 0.00 0.00 67 1012.7
20260508233004 57 311 0.0 0.0 0.00 0.00 0.00 67 1012.6
20260508231523 56 311 0.0 0.0 0.00 0.00 0.00 65 1012.7
20260508231004 57 311 0.0 1.0 0.00 0.00 0.00 64 1012.7
20260508230041 57 311 0.0 1.0 0.00 0.00 0.00 62 1012.9
20260508230004 57 294 0.0 0.0 0.00 0.00 0.00 63 1012.8
20260508225004 57 294 0.0 0.0 0.00 0.00 0.00 63 1012.8
20260508224549 57 294 0.0 0.0 0.00 0.00 0.00 63 1012.8
20260508223101 57 294 0.0 0.0 0.00 0.00 0.00 61 1012.8
20260508223005 58 294 0.0 0.0 0.00 0.00 0.00 61 1012.7
20260508221513 57 294 0.0 0.0 0.00 0.00 0.00 59 1012.5
20260508221006 58 294 0.0 1.0 0.00 0.00 0.00 60 1012.5
20260508220024 58 294 1.0 3.0 0.00 0.00 0.00 58 1012.7
20260508220004 58 294 2.0 3.0 0.00 0.00 0.00 58 1012.6
20260508214540 58 272 0.0 3.0 0.00 0.00 0.00 60 1012.8
20260508214004 59 258 0.0 3.0 0.00 0.00 0.00 61 1012.7
20260508213053 58 256 0.0 3.0 0.00 0.00 0.00 61 1012.9
20260508213004 58 256 0.0 3.0 0.00 0.00 0.00 60 1012.8
20260508212004 58 255 0.0 1.0 0.00 0.00 0.00 61 1012.8
20260508211505 58 258 0.0 0.0 0.00 0.00 0.00 65 1013.1
20260508211004 57 257 0.0 0.0 0.00 0.00 0.00 67 1013.1
20260508210014 56 257 0.0 4.0 0.00 0.00 0.00 66 1013.4
20260508210004 57 257 0.0 4.0 0.00 0.00 0.00 66 1013.2
20260508205004 56 273 0.0 2.0 0.00 0.00 0.00 66 1013.2
20260508204533 56 266 0.0 2.0 0.00 0.00 0.00 67 1013.4
20260508204005 56 300 0.0 3.0 0.00 0.00 0.00 66 1013.3
20260508203039 56 272 0.0 4.0 0.00 0.00 0.00 67 1013.5
20260508203005 56 271 0.0 4.0 0.00 0.00 0.00 67 1013.4
20260508201556 56 285 1.0 5.0 0.00 0.00 0.00 66 1014.1
20260508201005 56 266 0.0 6.0 0.00 0.00 0.00 67 1014.0
20260508200009 56 269 2.0 7.0 0.00 0.00 0.00 68 1014.2
20260508200001 55 269 1.0 7.0 0.00 0.00 0.00 68 1014.4
20260508195005 56 297 3.0 5.0 0.00 0.00 0.00 66 1014.4
20260508194515 56 290 1.0 7.0 0.00 0.00 0.00 66 1014.5
20260508194004 56 278 2.0 8.0 0.00 0.00 0.00 65 1014.4
20260508193028 56 293 3.0 8.0 0.00 0.00 0.00 64 1014.5
20260508193005 57 271 1.0 8.0 0.00 0.00 0.00 64 1014.4
20260508192005 57 281 6.0 11.0 0.00 0.00 0.00 63 1014.3
20260508191542 57 303 3.0 11.0 0.00 0.00 0.00 62 1014.4
20260508190052 57 245 4.0 9.0 0.00 0.00 0.00 61 1014.6
20260508190006 58 257 2.0 9.0 0.00 0.00 0.00 61 1014.4
20260508185005 58 253 3.0 11.0 0.00 0.00 0.00 60 1014.5
20260508184505 58 293 2.0 11.0 0.00 0.00 0.00 59 1014.5
20260508183013 59 264 4.0 11.0 0.00 0.00 0.00 55 1014.5
20260508183005 59 271 7.0 11.0 0.00 0.00 0.00 57 1014.3
20260508182004 59 303 5.0 11.0 0.00 0.00 0.00 57 1014.3
20260508181537 58 255 4.0 11.0 0.00 0.00 0.00 57 1014.4
20260508181005 59 285 6.0 12.0 0.00 0.00 0.00 56 1014.3
20260508180043 59 285 3.0 13.0 0.00 0.00 0.00 56 1014.4
20260508180006 60 268 5.0 13.0 0.00 0.00 0.00 55 1014.3
20260508174601 60 276 4.0 18.0 0.00 0.00 0.00 54 1014.3
20260508174005 60 266 5.0 18.0 0.00 0.00 0.00 54 1014.2